Location: Slanting_Bridge
(35.6330°N, 80.9830°W)
Time: 06:41:52
(UTC-05:00)

Amateur Radio Satellites - All Passes

Search period start: 09 February 2016 06:11
Search period end: 10 February 2016 06:11
Location: Slanting_Bridge, 35.6330°N, 80.9830°W

Satellite Date Start Highest point End Downlink Frequencies (MHz)
Time Altitude Azimuth
BRITE-PL 09 Feb 06:21:24 06:25:01 22° 93° (E) 06:28:26 437.365/2234.400
STRAND 1 09 Feb 06:25:31 06:30:24 49° 72° (ENE) 06:35:20 437.568
PRISM 09 Feb 06:33:16 06:35:37 15° 67° (ENE) 06:37:59 437.425
CUTE-I 09 Feb 06:53:36 06:59:01 84° 284° (WNW) 07:04:23 437.470
SO-50 09 Feb 06:58:36 07:01:04 14° 316° (NW) 07:03:34 436.795
PHONESAT 2.4 09 Feb 07:01:21 07:04:23 37° 210° (SSW) 07:07:25 2401.200-2431.200
Cubesat XI-IV 09 Feb 07:07:07 07:12:26 63° 286° (WNW) 07:17:44 437.490
DOVE 4 09 Feb 07:17:37 07:20:42 20° 94° (E) 07:23:45 437.250
LilacSat-2 09 Feb 07:29:32 07:32:38 24° 288° (WNW) 07:35:43 437.200
Cosmos 2504 09 Feb 07:30:40 07:35:45 17° 295° (WNW) 07:40:57 435.465 / 435.565
GOMX 1 09 Feb 07:31:10 07:35:33 65° 100° (E) 07:39:43 467.674
CANX-2 09 Feb 07:57:19 08:00:58 26° 96° (E) 08:04:35 2200.000
BRITE-PL 09 Feb 07:59:29 08:03:31 28° 291° (WNW) 08:07:18 437.365/2234.400
O/OREOS (USA 219) 09 Feb 08:00:42 08:05:02 55° 107° (ESE) 08:09:26 437.305
STRAND 1 09 Feb 08:06:38 08:09:48 16° 267° (W) 08:13:00 437.568
PRISM 09 Feb 08:06:43 08:10:35 39° 261° (W) 08:14:31 437.425
CINEMA 3 09 Feb 08:17:41 08:21:24 31° 97° (E) 08:25:09 145.822/145.860
HO-68 09 Feb 08:24:44 08:31:47 54° 101° (ESE) 08:38:46 435.675
CUBEBUG 2 09 Feb 08:31:17 08:33:45 15° 94° (E) 08:36:15 437.445
UWE-3 09 Feb 08:34:48 08:36:12 11° 92° (E) 08:37:36 435.000/436.395/437.385
Oscar 11 09 Feb 08:38:23 08:39:56 12° 92° (E) 08:41:28 145.826/435.025
COMPASS 1 09 Feb 08:42:54 08:46:56 43° 99° (E) 08:50:58 437.405
Cosmos 2499 09 Feb 08:46:33 08:52:24 20° 80° (E) 08:58:20 435.465 / 435.565
GONETS M04 09 Feb 08:46:49 08:55:04 50° 89° (E) 09:03:20
CUTE 1.7 + AOD 2 09 Feb 08:47:35 08:51:54 85° 280° (W) 08:56:11 437.475
JUGNU 09 Feb 08:51:29 08:54:18 14° 170° (S) 08:57:06 437.505
DOVE 4 09 Feb 08:54:53 08:58:25 26° 290° (WNW) 09:01:53 437.250
SEEDS 09 Feb 08:55:25 08:59:42 88° 102° (ESE) 09:03:57 437.485
AAUSAT CUBESAT 2 09 Feb 09:12:13 09:16:27 82° 102° (ESE) 09:20:39 437.432
ZACube-1 09 Feb 09:28:33 09:32:27 35° 98° (E) 09:36:24 437.345
ANTELSAT 09 Feb 09:28:56 09:32:42 30° 71° (ENE) 09:36:25 437.575/2403.000
CANX-2 09 Feb 09:33:21 09:36:39 22° 290° (WNW) 09:39:58 2200.000
TIGRISAT 09 Feb 09:35:55 09:39:50 34° 72° (ENE) 09:43:41 435.000
FUNcube-1 09 Feb 09:37:55 09:41:57 44° 99° (E) 09:46:04 145.935
O/OREOS (USA 219) 09 Feb 09:42:43 09:44:48 13° 303° (WNW) 09:46:53 437.305
RS-15 09 Feb 09:44:33 09:49:52 15° 97° (E) 09:55:15 29.354- 29.394
PCSat 09 Feb 09:48:17 09:51:13 15° 104° (ESE) 09:54:09 145.827
QB50P1 09 Feb 09:51:52 09:53:30 12° 66° (ENE) 09:55:08 145.935-145.965
HUMSAT D 09 Feb 09:54:41 09:57:43 19° 95° (E) 10:00:46 437.325/437.525
CINEMA 3 09 Feb 09:55:37 09:58:19 17° 292° (WNW) 10:01:01 145.822/145.860
CUBEBUG 2 09 Feb 10:06:39 10:10:29 36° 287° (WNW) 10:14:23 437.445
UWE-3 09 Feb 10:08:50 10:12:52 48° 286° (WNW) 10:17:01 435.000/436.395/437.385
AIST 1 09 Feb 10:09:29 10:12:49 22° 88° (E) 10:16:11
Oscar 11 09 Feb 10:12:06 10:16:18 50° 286° (WNW) 10:20:30 145.826/435.025
HO-68 09 Feb 10:13:17 10:19:02 27° 298° (WNW) 10:24:45 435.675
AO-85 09 Feb 10:15:12 10:20:16 51° 114° (ESE) 10:25:34 145.980
UNISAT 6 09 Feb 10:19:50 10:24:09 66° 258° (WSW) 10:28:26 437.425
COMPASS 1 09 Feb 10:19:59 10:22:07 14° 293° (WNW) 10:24:14 437.405
SRMSAT 09 Feb 10:26:45 10:28:49 12° 168° (SSE) 10:30:55 437.500
DELFI C3 09 Feb 10:32:18 10:36:14 51° 285° (WNW) 10:40:09 145.870
Cosmos 2499 09 Feb 10:35:51 10:44:28 76° 278° (W) 10:53:25 435.465 / 435.565
JUGNU 09 Feb 10:38:56 10:42:32 17° 181° (S) 10:46:07 437.505
POLYITAN 1 09 Feb 10:41:24 10:45:28 47° 74° (ENE) 10:49:32 437.675
QB50P2 09 Feb 10:42:03 10:46:08 49° 74° (ENE) 10:50:15 145.880/145.840
GONETS M04 09 Feb 10:44:40 10:52:06 31° 287° (WNW) 10:59:36
BUGSAT 1 09 Feb 10:48:47 10:52:17 26° 71° (ENE) 10:55:47 437.445
50 SAT 09 Feb 10:54:20 10:57:05 19° 95° (E) 10:59:50 437.505
ZACube-1 09 Feb 11:05:48 11:08:28 16° 292° (WNW) 11:11:08 437.345
ANTELSAT 09 Feb 11:06:17 11:09:25 19° 265° (W) 11:12:32 437.575/2403.000
POPSAT HIP 1 09 Feb 11:11:50 11:16:05 75° 259° (WSW) 11:20:19 437.405
TIGRISAT 09 Feb 11:13:45 11:16:35 17° 265° (W) 11:19:24 435.000
VELOX 1 09 Feb 11:14:37 11:18:26 28° 97° (E) 11:22:13 145.980
FUNcube-1 09 Feb 11:15:46 11:17:50 13° 293° (WNW) 11:19:55 145.935
NANOSAT C BR1 09 Feb 11:17:02 11:21:14 66° 259° (W) 11:25:26 145.865
DUCHIFAT 1 09 Feb 11:18:47 11:22:59 66° 259° (W) 11:27:10 145.980
QB50P1 09 Feb 11:24:42 11:28:50 50° 260° (W) 11:32:57 145.935-145.965
PCSat 09 Feb 11:28:40 11:34:01 62° 299° (WNW) 11:39:24 145.827
HUMSAT D 09 Feb 11:29:45 11:33:21 28° 288° (WNW) 11:36:57 437.325/437.525
AISAT 09 Feb 11:30:50 11:35:05 46° 100° (E) 11:39:17 437.250
AIST 1 09 Feb 11:46:34 11:50:14 26° 283° (WNW) 11:53:56
UKube-1 09 Feb 11:47:24 11:51:42 64° 101° (ESE) 11:55:58 .
RS-15 09 Feb 11:49:08 12:00:09 79° 115° (ESE) 12:11:46 29.354- 29.394
ESTCUBE 1 09 Feb 11:49:47 11:54:22 87° 106° (ESE) 11:58:53 437.505/2401.250
CUBEBUG 1 09 Feb 11:52:27 11:56:48 68° 101° (E) 12:01:06 437.445
AO-85 09 Feb 11:56:50 12:01:06 23° 312° (NW) 12:05:27 145.980
DX 1 09 Feb 11:58:12 12:02:33 79° 285° (WNW) 12:06:52 434.975-435.025
SPROUT 09 Feb 11:58:23 12:01:55 25° 96° (E) 12:05:26 437.525
TISAT 1 09 Feb 12:11:48 12:13:11 11° 92° (E) 12:14:35 437.305
Oscar 19 09 Feb 12:12:48 12:17:01 26° 68° (ENE) 12:21:16 437.125/150
SRMSAT 09 Feb 12:13:36 12:17:12 17° 177° (S) 12:20:49 437.500
POLYITAN 1 09 Feb 12:19:56 12:21:30 12° 268° (W) 12:23:05 437.675
QB50P2 09 Feb 12:20:54 12:22:12 11° 268° (W) 12:23:31 145.880/145.840
BUGSAT 1 09 Feb 12:24:22 12:27:37 21° 264° (W) 12:30:51 437.445
50 SAT 09 Feb 12:27:59 12:31:03 23° 289° (WNW) 12:34:07 437.505
JUGNU 09 Feb 12:28:11 12:30:46 13° 191° (S) 12:33:19 437.505
JAS-2 09 Feb 12:32:52 12:39:50 39° 69° (ENE) 12:46:19 435.910
Cosmos 2499 09 Feb 12:35:08 12:39:06 14° 297° (WNW) 12:43:08 435.465 / 435.565
Gurwin Techsat 1B 09 Feb 12:39:42 12:43:06 18° 65° (ENE) 12:46:31 435.225
CUSAT 1 09 Feb 12:48:03 12:53:30 43° 74° (ENE) 12:57:38 437.405
VELOX 1 09 Feb 12:51:21 12:54:44 22° 291° (WNW) 12:58:06 145.980
AISAT 09 Feb 13:08:52 13:11:09 14° 294° (WNW) 13:13:24 437.250
DANDE 09 Feb 13:15:34 13:22:14 47° 74° (ENE) 13:27:17 436.750
ITAMSAT 1 09 Feb 13:20:36 13:24:32 22° 66° (ENE) 13:28:28 435.822/435.867
UKube-1 09 Feb 13:26:49 13:27:10 10° 296° (WNW) 13:27:31 .
SWISSCUBE 09 Feb 13:28:50 13:32:07 18° 94° (E) 13:35:25 437.505
SPROUT 09 Feb 13:34:25 13:37:46 23° 290° (WNW) 13:41:06 437.525
YUBILEINY 09 Feb 13:36:12 13:43:21 26° 71° (ENE) 13:50:24 435.215
Cosmos 2491 09 Feb 13:42:22 13:45:51 13° 77° (ENE) 13:49:19 435.465 / 435.565
TISAT 1 09 Feb 13:45:05 13:49:05 46° 286° (WNW) 13:53:04 437.305
SO-50 09 Feb 13:49:52 13:54:13 33° 53° (NE) 13:58:26 436.795
Oscar 19 09 Feb 13:51:32 13:56:10 33° 263° (W) 14:00:48 437.125/150
SRMSAT 09 Feb 14:02:26 14:05:37 15° 188° (S) 14:08:47 437.500
RS-15 09 Feb 14:04:15 14:13:51 31° 320° (NW) 14:23:57 29.354- 29.394
ITUPSAT 1 09 Feb 14:04:22 14:08:53 39° 99° (E) 14:13:23 437.325
BEESAT 09 Feb 14:13:06 14:17:46 50° 100° (E) 14:22:25 436.000
Gurwin Techsat 1B 09 Feb 14:17:25 14:22:35 53° 260° (W) 14:27:47 435.225
JAS-2 09 Feb 14:17:32 14:24:41 40° 262° (W) 14:31:25 435.910
AO-7 09 Feb 14:19:12 14:26:35 37° 62° (ENE) 14:33:59 29.400- 29.500
CUSAT 1 09 Feb 14:31:53 14:34:55 15° 280° (W) 14:37:34 437.405
ISS 09 Feb 14:43:03 14:44:43 13° 128° (SE) 14:46:24 145.825
HORYU 2 09 Feb 14:50:12 14:51:37 11° 64° (ENE) 14:53:02 437.375
ITAMSAT 1 09 Feb 14:58:54 15:03:43 39° 261° (W) 15:08:34 435.822/435.867
DANDE 09 Feb 14:59:40 15:04:25 21° 279° (W) 15:08:23 436.750
SWISSCUBE 09 Feb 15:05:34 15:10:02 39° 289° (WNW) 15:14:29 437.505
M-CUBED/EXP-1 PRIME 09 Feb 15:14:50 15:18:24 43° 71° (ENE) 15:21:45 437.505
AUBIESAT-1 09 Feb 15:25:04 15:28:39 47° 70° (ENE) 15:32:00 437.475
Cosmos 2504 09 Feb 15:30:20 15:37:35 29° 71° (ENE) 15:44:24 435.465 / 435.565
SO-50 09 Feb 15:30:43 15:34:32 24° 249° (WSW) 15:38:12 436.795
YUBILEINY 09 Feb 15:31:59 15:40:37 60° 269° (W) 15:49:11 435.215
Cosmos 2491 09 Feb 15:32:31 15:41:14 83° 94° (E) 15:49:58 435.465 / 435.565
ITUPSAT 1 09 Feb 15:43:01 15:46:24 19° 293° (WNW) 15:49:48 437.325
STARS 09 Feb 15:45:40 15:49:37 33° 98° (E) 15:53:34 437.465
MOZHAYETS 4 09 Feb 15:51:21 15:55:23 29° 96° (E) 15:59:23
BEESAT 09 Feb 15:52:21 15:55:06 15° 295° (WNW) 15:57:52 436.000
KKS-1 09 Feb 16:01:05 16:05:31 80° 286° (WNW) 16:09:56 437.445
AO-7 09 Feb 16:11:09 16:19:05 47° 259° (W) 16:27:04 29.400- 29.500
ISS 09 Feb 16:17:43 16:20:51 45° 322° (NW) 16:24:00 145.825
HORYU 2 09 Feb 16:23:18 16:27:38 59° 259° (WSW) 16:32:01 437.375
RS-15 09 Feb 16:26:30 16:32:04 14° 355° (N) 16:37:43 29.354- 29.394
CUTE-I 09 Feb 16:35:49 16:38:24 14° 62° (ENE) 16:41:00 437.470
BEESAT 3 09 Feb 16:40:39 16:44:03 28° 113° (ESE) 16:47:29 437.485
Cubesat XI-IV 09 Feb 16:48:17 16:51:51 18° 65° (ENE) 16:55:25 437.490
BEESAT 2 09 Feb 17:03:54 17:07:30 32° 113° (ESE) 17:11:06 435.950
STARS 09 Feb 17:22:43 17:25:44 18° 292° (WNW) 17:28:44 437.465
Cosmos 2504 09 Feb 17:23:05 17:31:17 52° 271° (W) 17:38:55 435.465 / 435.565
BRITE-PL 09 Feb 17:28:04 17:32:35 25° 68° (ENE) 17:37:03 437.365/2234.400
MOZHAYETS 4 09 Feb 17:28:41 17:32:23 24° 291° (WNW) 17:36:05
Cosmos 2491 09 Feb 17:33:35 17:39:04 18° 294° (WNW) 17:44:34 435.465 / 435.565
CUBESAT XI-V 09 Feb 18:07:28 18:12:12 86° 103° (ESE) 18:16:52 437.345
LilacSat-2 09 Feb 18:07:49 18:11:38 80° 258° (WSW) 18:15:27 437.200
CUTE-I 09 Feb 18:12:32 18:17:48 69° 258° (WSW) 18:23:09 437.470
O/OREOS (USA 219) 09 Feb 18:13:25 18:17:59 65° 69° (ENE) 18:22:32 437.305
BEESAT 3 09 Feb 18:18:40 18:21:47 21° 308° (NW) 18:24:55 437.485
DOVE 4 09 Feb 18:19:58 18:23:32 19° 68° (ENE) 18:26:58 437.250
Cubesat XI-IV 09 Feb 18:26:20 18:31:28 50° 260° (W) 18:36:40 437.490
GOMX 1 09 Feb 18:35:00 18:40:17 54° 74° (ENE) 18:45:23 467.674
STRAND 1 09 Feb 18:39:44 18:43:37 21° 95° (E) 18:47:28 437.568
RS-15 09 Feb 18:42:14 18:51:19 23° 32° (NNE) 19:00:30 29.354- 29.394
BEESAT 2 09 Feb 18:42:28 18:45:26 19° 309° (NW) 18:48:24 435.950
CANX-2 09 Feb 18:48:46 18:50:52 14° 67° (ENE) 18:52:58 2200.000
HO-68 09 Feb 18:50:45 18:56:47 30° 64° (ENE) 19:02:50 435.675
AO-85 09 Feb 18:50:58 18:54:56 22° 48° (NE) 18:58:39 145.980
AIST 2 09 Feb 18:55:49 18:59:54 55° 116° (ESE) 19:03:59 435.215
GONETS M04 09 Feb 19:01:39 19:07:56 21° 68° (ENE) 19:14:10
BRITE-PL 09 Feb 19:05:24 19:10:45 42° 262° (W) 19:16:03 437.365/2234.400
CINEMA 3 09 Feb 19:16:40 19:20:19 23° 70° (ENE) 19:23:52 145.822/145.860
COMPASS 1 09 Feb 19:31:37 19:34:40 20° 69° (ENE) 19:37:45 437.405
CUTE 1.7 + AOD 2 09 Feb 19:37:17 19:41:16 44° 74° (ENE) 19:45:18 437.475
SEEDS 09 Feb 19:44:17 19:48:10 39° 73° (ENE) 19:52:05 437.485
PRISM 09 Feb 19:51:20 19:55:08 33° 98° (E) 19:58:53 437.425
DOVE 4 09 Feb 19:56:00 20:00:55 43° 261° (W) 20:05:37 437.250
AAUSAT CUBESAT 2 09 Feb 19:59:45 20:03:30 35° 73° (ENE) 20:07:17 437.432
GOMX 1 09 Feb 20:15:10 20:18:32 17° 267° (W) 20:21:52 467.674
STRAND 1 09 Feb 20:18:06 20:22:52 39° 289° (WNW) 20:27:37 437.568
PCSat 09 Feb 20:19:27 20:24:48 55° 61° (ENE) 20:30:05 145.827
CANX-2 09 Feb 20:22:20 20:26:19 43° 261° (W) 20:30:21 2200.000
ZACube-1 09 Feb 20:22:22 20:25:26 20° 69° (ENE) 20:28:28 437.345
AO-85 09 Feb 20:30:57 20:35:41 43° 247° (WSW) 20:40:00 145.980
FUNcube-1 09 Feb 20:31:13 20:34:35 24° 71° (ENE) 20:37:55 145.935
Cosmos 2499 09 Feb 20:32:12 20:39:37 34° 73° (ENE) 20:46:29 435.465 / 435.565
AIST 2 09 Feb 20:36:32 20:38:43 14° 312° (NW) 20:40:54 435.215
HO-68 09 Feb 20:37:20 20:44:10 47° 260° (W) 20:51:03 435.675
CINEMA 3 09 Feb 20:53:16 20:57:19 28° 263° (W) 21:01:14 145.822/145.860
RS-15 09 Feb 20:54:12 21:06:25 72° 58° (ENE) 21:18:43 29.354- 29.394
GONETS M04 09 Feb 20:56:46 21:05:32 74° 267° (W) 21:14:20
CUBEBUG 2 09 Feb 21:01:20 21:05:40 65° 259° (W) 21:09:54 437.445
UWE-3 09 Feb 21:02:35 21:06:53 90° 286° (WNW) 21:11:06 435.000/436.395/437.385
Oscar 11 09 Feb 21:03:27 21:07:44 83° 76° (ENE) 21:12:03 145.826/435.025
COMPASS 1 09 Feb 21:06:33 21:10:04 27° 264° (W) 21:13:37 437.405
DELFI C3 09 Feb 21:15:22 21:19:14 57° 76° (ENE) 21:23:10 145.870
CUTE 1.7 + AOD 2 09 Feb 21:15:36 21:17:19 12° 268° (W) 21:19:04 437.475
SEEDS 09 Feb 21:21:55 21:24:03 14° 268° (W) 21:26:10 437.485
PRISM 09 Feb 21:27:28 21:30:11 17° 292° (WNW) 21:32:53 437.425
AAUSAT CUBESAT 2 09 Feb 21:36:42 21:39:06 15° 267° (W) 21:41:32 437.432
AIST 1 09 Feb 21:55:52 22:00:08 55° 81° (E) 22:04:21
ZACube-1 09 Feb 21:57:53 22:01:32 28° 263° (W) 22:05:10 437.345
PCSat 09 Feb 22:04:18 22:07:40 17° 256° (WSW) 22:11:01 145.827
FUNcube-1 09 Feb 22:07:23 22:10:44 23° 264° (W) 22:14:05 145.935
VELOX 1 09 Feb 22:09:46 22:12:53 19° 68° (ENE) 22:16:00 145.980
UNISAT 6 09 Feb 22:14:33 22:18:24 30° 97° (E) 22:22:17 437.425
HUMSAT D 09 Feb 22:17:35 22:21:37 60° 260° (W) 22:25:39 437.325/437.525
Cosmos 2499 09 Feb 22:25:07 22:32:47 43° 272° (W) 22:39:55 435.465 / 435.565
AISAT 09 Feb 22:25:33 22:29:25 29° 71° (ENE) 22:33:17 437.250
UKube-1 09 Feb 22:39:07 22:43:05 36° 72° (ENE) 22:47:04 .
CUBEBUG 1 09 Feb 22:45:25 22:49:31 38° 72° (ENE) 22:53:38 437.445
ESTCUBE 1 09 Feb 22:46:11 22:50:35 54° 74° (ENE) 22:55:01 437.505/2401.250
ISS 09 Feb 22:47:43 22:50:52 49° 39° (NE) 22:54:01 145.825
DX 1 09 Feb 22:50:29 22:54:48 60° 74° (ENE) 22:59:08 434.975-435.025
SPROUT 09 Feb 22:50:32 22:52:51 14° 67° (ENE) 22:55:10 437.525
GONETS M04 09 Feb 22:58:45 23:00:43 11° 284° (WNW) 23:02:42
ANTELSAT 09 Feb 22:59:11 23:03:32 79° 284° (WNW) 23:07:59 437.575/2403.000
POPSAT HIP 1 09 Feb 23:00:24 23:03:37 21° 96° (E) 23:06:49 437.405
50 SAT 09 Feb 23:04:29 23:08:10 77° 258° (WSW) 23:11:53 437.505
NANOSAT C BR1 09 Feb 23:05:04 23:08:26 23° 96° (E) 23:11:48 145.865
TIGRISAT 09 Feb 23:06:09 23:10:28 69° 284° (WNW) 23:14:52 435.000
DUCHIFAT 1 09 Feb 23:06:34 23:09:55 23° 96° (E) 23:13:15 145.980
RS-15 09 Feb 23:07:58 23:17:53 31° 257° (WSW) 23:27:52 29.354- 29.394
QB50P1 09 Feb 23:12:39 23:16:22 30° 97° (E) 23:20:03 145.935-145.965
PHONESAT 2.4 09 Feb 23:38:37 23:40:25 14° 143° (SE) 23:42:14 2401.200-2431.200
VELOX 1 09 Feb 23:45:01 23:49:05 34° 262° (W) 23:53:11 145.980
UNISAT 6 09 Feb 23:51:42 23:54:55 20° 291° (WNW) 23:58:10 437.425
AISAT 10 Feb 00:02:27 00:05:52 22° 264° (W) 00:09:19 437.250
POLYITAN 1 10 Feb 00:04:53 00:09:01 58° 285° (WNW) 00:13:08 437.675
QB50P2 10 Feb 00:05:33 00:09:41 55° 285° (WNW) 00:13:47 145.880/145.840
BUGSAT 1 10 Feb 00:08:08 00:12:09 66° 101° (ESE) 00:16:08 437.445
CUSAT 1 10 Feb 00:08:53 00:10:37 11° 78° (ENE) 00:12:22 437.405
UKube-1 10 Feb 00:16:29 00:19:14 16° 266° (W) 00:21:59 .
CUBEBUG 1 10 Feb 00:23:08 00:25:55 16° 266° (W) 00:28:42 437.445
SPROUT 10 Feb 00:24:20 00:28:26 42° 261° (W) 00:32:32 437.525
ISS 10 Feb 00:25:32 00:26:59 12° 233° (SW) 00:28:25 145.825
ESTCUBE 1 10 Feb 00:26:06 00:27:41 12° 268° (W) 00:29:17 437.505/2401.250
Oscar 19 10 Feb 00:29:56 00:30:45 10° 91° (E) 00:31:34 437.125/150
SWISSCUBE 10 Feb 00:33:13 00:36:04 16° 65° (ENE) 00:38:54 437.505
TISAT 1 10 Feb 00:33:22 00:37:36 83° 76° (ENE) 00:41:50 437.305
POPSAT HIP 1 10 Feb 00:35:51 00:39:20 26° 290° (WNW) 00:42:50 437.405
NANOSAT C BR1 10 Feb 00:40:43 00:44:04 23° 290° (WNW) 00:47:24 145.865
DANDE 10 Feb 00:40:59 00:43:10 11° 76° (ENE) 00:45:23 436.750
DUCHIFAT 1 10 Feb 00:42:11 00:45:32 24° 290° (WNW) 00:48:51 145.980
QB50P1 10 Feb 00:48:59 00:51:55 19° 292° (WNW) 00:54:51 145.935-145.965
ITUPSAT 1 10 Feb 01:08:24 01:12:37 33° 70° (ENE) 01:16:53 437.325
PHONESAT 2.4 10 Feb 01:14:03 01:17:20 82° 157° (SSE) 01:20:37 2401.200-2431.200
BEESAT 10 Feb 01:16:38 01:21:05 41° 72° (ENE) 01:25:32 436.000
JAS-2 10 Feb 01:31:26 01:36:22 32° 96° (E) 01:41:00 435.910
CUSAT 1 10 Feb 01:43:45 01:51:27 67° 94° (E) 01:59:30 437.405
Cosmos 2491 10 Feb 01:47:00 01:54:52 36° 74° (ENE) 02:02:42 435.465 / 435.565
Oscar 19 10 Feb 02:05:26 02:10:33 74° 285° (WNW) 02:15:38 437.125/150
SWISSCUBE 10 Feb 02:08:50 02:13:25 48° 260° (W) 02:18:02 437.505
DANDE 10 Feb 02:17:01 02:24:26 69° 94° (E) 02:32:51 436.750
AO-7 10 Feb 02:28:16 02:29:57 11° 90° (E) 02:31:37 29.400- 29.500
YUBILEINY 10 Feb 02:33:27 02:40:58 33° 85° (E) 02:48:30 435.215
Gurwin Techsat 1B 10 Feb 02:36:25 02:41:46 79° 103° (ESE) 02:47:05 435.225
BEESAT 3 10 Feb 02:37:54 02:41:52 88° 61° (ENE) 02:45:47 437.485
STARS 10 Feb 02:40:00 02:43:21 22° 69° (ENE) 02:46:42 437.465
ITUPSAT 1 10 Feb 02:46:48 02:50:28 22° 265° (W) 02:54:09 437.325
MOZHAYETS 4 10 Feb 02:51:02 02:54:18 20° 68° (ENE) 02:57:36
PHONESAT 2.4 10 Feb 02:51:43 02:54:47 36° 353° (N) 02:57:51 2401.200-2431.200
BEESAT 10 Feb 02:55:53 02:59:00 17° 266° (W) 03:02:08 436.000
KKS-1 10 Feb 02:55:56 03:00:21 64° 74° (ENE) 03:04:45 437.445
BEESAT 2 10 Feb 03:02:12 03:06:11 79° 242° (WSW) 03:10:07 435.950
ITAMSAT 1 10 Feb 03:14:13 03:19:29 87° 282° (WNW) 03:24:42 435.822/435.867
JAS-2 10 Feb 03:16:47 03:21:18 26° 294° (WNW) 03:25:34 435.910
AIST 2 10 Feb 03:20:58 03:23:37 16° 49° (NE) 03:26:15 435.215
CUSAT 1 10 Feb 03:27:58 03:34:16 25° 291° (WNW) 03:40:42 437.405
Cosmos 2491 10 Feb 03:43:37 03:51:43 44° 272° (W) 03:59:51 435.465 / 435.565
SO-50 10 Feb 04:01:46 04:05:25 22° 110° (ESE) 04:09:08 436.795
DANDE 10 Feb 04:02:01 04:08:07 25° 293° (WNW) 04:14:43 436.750
Cosmos 2504 10 Feb 04:04:40 04:11:25 27° 82° (E) 04:18:21 435.465 / 435.565
AO-7 10 Feb 04:15:31 04:23:52 74° 106° (ESE) 04:32:08 29.400- 29.500
STARS 10 Feb 04:15:42 04:19:32 29° 263° (W) 04:23:22 437.465
HORYU 2 10 Feb 04:17:22 04:21:21 31° 98° (E) 04:25:19 437.375
Gurwin Techsat 1B 10 Feb 04:19:06 04:20:59 12° 298° (WNW) 04:22:51 435.225
MOZHAYETS 4 10 Feb 04:27:06 04:31:13 34° 262° (W) 04:35:23
YUBILEINY 10 Feb 04:29:02 04:37:22 48° 283° (WNW) 04:45:49 435.215
PHONESAT 2.4 10 Feb 04:29:21 04:32:27 39° 10° (N) 04:35:33 2401.200-2431.200
M-CUBED/EXP-1 PRIME 10 Feb 04:31:03 04:34:25 53° 106° (ESE) 04:38:00 437.505
AUBIESAT-1 10 Feb 04:40:43 04:44:09 59° 106° (ESE) 04:47:48 437.475
AIST 2 10 Feb 04:58:24 05:02:18 42° 246° (WSW) 05:06:10 435.215
CUBESAT XI-V 10 Feb 05:07:32 05:12:07 59° 75° (ENE) 05:16:45 437.345
SO-50 10 Feb 05:41:02 05:45:38 40° 305° (NW) 05:50:18 436.795
LilacSat-2 10 Feb 05:45:52 05:47:42 13° 93° (E) 05:49:30 437.200
STRAND 1 10 Feb 05:52:55 05:56:53 23° 67° (ENE) 06:00:52 437.568
HORYU 2 10 Feb 05:54:25 05:57:41 20° 292° (WNW) 06:00:57 437.375
